Tracking 35334 objects as of 13-Sep-2026
HD Live streaming from Space Station
objects crossing your sky now

IRIDIUM 33 DEB

Track IRIDIUM 33 DEB now!
10-day predictions


NORAD ID: 35480
Int'l Code: 1997-051QA
Launch date: September 14, 1997
Source: United States (US)
Launch site: TYURATAM MISSILE AND SPACE COMPLEX (TTMTR)

Note: This is SATELLITE DEBRIS
Your satellite tracking list
Your tracking list is empty




NASA's NSSDC Master Catalog

Two Line Element Set (TLE):
1 35480U 97051QA  26254.30778058  .00001196  00000-0  29782-3 0  9997
2 35480  86.3497 266.6117 0010904 275.0175  84.9785 14.50898364909826
Source of the keplerian elements: AFSPC